KLM89Q EHAM-LIML

Flight info

Callsign KLM89Q
Flight time 1h 21m
Altitude 39000
Route EDUPO Z739 MISGO DCT ASBON DCT TUSUK DCT KRH/N0450F380 DCT NATOR/N0451F390 DCT TRA DCT RIPUS DCT GERSA DCT SOSON DCT ODINA
Aircraft B739/M-SDE2E3FGIJ1RWY/LB1

Departure

Time 2026-04-28 17:29
Airport Amsterdam Airport Schiphol (EHAM)

Arrival

Time 2026-04-28 18:51
Airport Milano Linate Airport (LIML)
Time Latitude Longitude Altitude Speed Heading
2026-04-28 16:42 52.30419 4.76656 -3 ft 0 kts 27°
2026-04-28 16:43 52.30429 4.76664 -1 ft 1 kts 28°
2026-04-28 16:43 52.30429 4.76663 -3 ft 0 kts 28°
2026-04-28 17:15 52.30421 4.76657 -3 ft 4 kts 32°
2026-04-28 17:15 52.30400 4.76630 -3 ft 4 kts 52°
2026-04-28 17:15 52.30388 4.76593 -3 ft 4 kts 84°
2026-04-28 17:16 52.30390 4.76563 -3 ft 0 kts 118°
2026-04-28 17:19 52.30389 4.76564 -3 ft 1 kts 120°
2026-04-28 17:19 52.30363 4.76580 -3 ft 10 kts 169°
2026-04-28 17:19 52.30290 4.76509 -3 ft 14 kts 238°
2026-04-28 17:19 52.30239 4.76377 -3 ft 14 kts 238°
2026-04-28 17:20 52.30190 4.76246 -3 ft 13 kts 238°
2026-04-28 17:20 52.30159 4.76163 -3 ft 13 kts 237°
2026-04-28 17:20 52.30094 4.75998 -3 ft 15 kts 238°
2026-04-28 17:20 52.30032 4.75836 -3 ft 18 kts 237°
2026-04-28 17:21 52.29969 4.75670 -3 ft 17 kts 238°
2026-04-28 17:21 52.29906 4.75510 -3 ft 16 kts 237°
2026-04-28 17:21 52.29848 4.75355 -3 ft 16 kts 240°
2026-04-28 17:22 52.29912 4.75061 -3 ft 14 kts 311°
2026-04-28 17:22 52.29977 4.74940 -3 ft 14 kts 312°
2026-04-28 17:22 52.30040 4.74827 -3 ft 13 kts 310°
2026-04-28 17:23 52.30184 4.74557 -3 ft 18 kts 311°
2026-04-28 17:23 52.30268 4.74401 -3 ft 18 kts 311°
2026-04-28 17:23 52.30351 4.74254 -3 ft 17 kts 317°
2026-04-28 17:23 52.30460 4.74194 -3 ft 17 kts
2026-04-28 17:24 52.30573 4.74204 -3 ft 16 kts
2026-04-28 17:24 52.30683 4.74215 -3 ft 15 kts
2026-04-28 17:24 52.30787 4.74228 -3 ft 15 kts
2026-04-28 17:24 52.30889 4.74234 -4 ft 15 kts
2026-04-28 17:25 52.31006 4.74245 -3 ft 17 kts
2026-04-28 17:25 52.31236 4.74265 -3 ft 16 kts
2026-04-28 17:25 52.31344 4.74281 -3 ft 15 kts 15°
2026-04-28 17:26 52.31396 4.74413 -3 ft 15 kts 87°
2026-04-28 17:26 52.31400 4.74576 -3 ft 14 kts 85°
2026-04-28 17:26 52.31466 4.74668 -3 ft 13 kts 358°
2026-04-28 17:26 52.31557 4.74660 -3 ft 13 kts 358°
2026-04-28 17:27 52.31643 4.74686 -1 ft 13 kts 32°
2026-04-28 17:27 52.31671 4.74813 -2 ft 13 kts 89°
2026-04-28 17:27 52.31672 4.74834 -3 ft 0 kts 89°
2026-04-28 17:28 52.31672 4.74862 -4 ft 6 kts 88°
2026-04-28 17:28 52.31714 4.76085 -2 ft 111 kts 88°
2026-04-28 17:28 52.31778 4.77554 57 ft 145 kts 81°
2026-04-28 17:29 52.31853 4.79249 440 ft 155 kts 83°
2026-04-28 17:29 52.31912 4.81076 817 ft 162 kts 83°
2026-04-28 17:29 52.31963 4.82842 1389 ft 156 kts 83°
2026-04-28 17:30 52.32023 4.86434 2208 ft 161 kts 94°
2026-04-28 17:30 52.31193 4.89925 3080 ft 166 kts 107°
2026-04-28 17:30 52.30721 4.91758 3321 ft 185 kts 108°
2026-04-28 17:31 52.30184 4.93830 3507 ft 206 kts 109°
2026-04-28 17:31 52.29081 4.98633 4111 ft 240 kts 103°
2026-04-28 17:32 52.28181 5.03974 5433 ft 249 kts 104°
2026-04-28 17:32 52.27727 5.06655 6221 ft 249 kts 104°
2026-04-28 17:32 52.27260 5.09374 7026 ft 248 kts 104°
2026-04-28 17:32 52.26788 5.12112 7588 ft 257 kts 104°
2026-04-28 17:33 52.26297 5.14944 8248 ft 261 kts 104°
2026-04-28 17:33 52.25793 5.17831 8934 ft 265 kts 104°
2026-04-28 17:33 52.25284 5.20731 9737 ft 268 kts 104°
2026-04-28 17:33 52.25111 5.21710 10066 ft 264 kts 104°
2026-04-28 17:34 52.24135 5.26511 10928 ft 287 kts 117°
2026-04-28 17:34 52.22958 5.29365 11076 ft 312 kts 124°
2026-04-28 17:34 52.21636 5.32301 11388 ft 329 kts 125°
2026-04-28 17:34 52.20218 5.35280 12037 ft 333 kts 126°
2026-04-28 17:35 52.18759 5.38278 12668 ft 338 kts 126°
2026-04-28 17:35 52.17294 5.41273 13495 ft 340 kts 126°
2026-04-28 17:35 52.15806 5.44319 14122 ft 348 kts 126°
2026-04-28 17:35 52.14278 5.47456 14574 ft 357 kts 126°
2026-04-28 17:36 52.12729 5.50634 15348 ft 358 kts 127°
2026-04-28 17:36 52.11170 5.53837 15939 ft 365 kts 127°
2026-04-28 17:36 52.09588 5.57081 16706 ft 365 kts 126°
2026-04-28 17:36 52.08113 5.60447 17374 ft 368 kts 115°
2026-04-28 17:37 52.07469 5.62983 17853 ft 366 kts 106°
2026-04-28 17:37 52.06736 5.66945 18518 ft 370 kts 104°
2026-04-28 17:37 52.06060 5.71027 19020 ft 376 kts 103°
2026-04-28 17:37 52.05402 5.75146 19754 ft 374 kts 103°
2026-04-28 17:38 52.04750 5.79218 20444 ft 374 kts 103°
2026-04-28 17:38 52.04084 5.83368 20937 ft 381 kts 103°
2026-04-28 17:38 52.03413 5.87588 21346 ft 389 kts 102°
2026-04-28 17:38 52.02739 5.91832 22016 ft 390 kts 102°
2026-04-28 17:39 52.02053 5.96105 22558 ft 394 kts 103°
2026-04-28 17:39 52.01355 6.00448 23035 ft 400 kts 103°
2026-04-28 17:39 51.99950 6.09191 24286 ft 400 kts 102°
2026-04-28 17:40 51.99238 6.13547 24699 ft 404 kts 103°
2026-04-28 17:40 51.98464 6.18295 25072 ft 410 kts 102°
2026-04-28 17:40 51.97780 6.22477 25553 ft 411 kts 102°
2026-04-28 17:40 51.97032 6.26970 26062 ft 413 kts 103°
2026-04-28 17:41 51.96281 6.31493 26370 ft 419 kts 103°
2026-04-28 17:41 51.95524 6.36057 26872 ft 420 kts 103°
2026-04-28 17:41 51.94758 6.40635 27267 ft 424 kts 103°
2026-04-28 17:41 51.93974 6.45295 27541 ft 430 kts 103°
2026-04-28 17:42 51.93189 6.49996 27949 ft 432 kts 103°
2026-04-28 17:42 51.92401 6.54676 28499 ft 432 kts 103°
2026-04-28 17:42 51.91601 6.59396 28860 ft 436 kts 103°
2026-04-28 17:42 51.90796 6.64167 29149 ft 441 kts 103°
2026-04-28 17:43 51.89985 6.68962 29551 ft 443 kts 102°
2026-04-28 17:43 51.89164 6.73767 29998 ft 444 kts 103°
2026-04-28 17:43 51.88340 6.78601 30276 ft 448 kts 103°
2026-04-28 17:43 51.87510 6.83474 30579 ft 450 kts 103°
2026-04-28 17:44 51.86665 6.88363 30796 ft 455 kts 105°
2026-04-28 17:44 51.85253 6.92991 31026 ft 464 kts 126°
2026-04-28 17:44 51.82886 6.96537 31407 ft 468 kts 147°
2026-04-28 17:44 51.79953 6.98756 31671 ft 471 kts 162°
2026-04-28 17:45 51.76758 6.99910 32279 ft 465 kts 173°
2026-04-28 17:45 51.73538 6.99970 32650 ft 465 kts 188°
2026-04-28 17:45 51.70385 6.98966 32770 ft 470 kts 194°
2026-04-28 17:45 51.67158 6.97689 33038 ft 471 kts 195°
2026-04-28 17:46 51.63998 6.96396 33618 ft 466 kts 194°
2026-04-28 17:46 51.60850 6.95141 33970 ft 467 kts 194°
2026-04-28 17:46 51.57671 6.93921 34159 ft 469 kts 195°
2026-04-28 17:46 51.54527 6.92752 34745 ft 461 kts 194°
2026-04-28 17:47 51.51407 6.91607 35095 ft 460 kts 195°
2026-04-28 17:47 51.45133 6.89317 35308 ft 468 kts 192°
2026-04-28 17:47 51.42967 6.88895 35584 ft 467 kts 181°
2026-04-28 17:48 51.38731 6.89884 36096 ft 465 kts 162°
2026-04-28 17:48 51.35776 6.92033 36152 ft 470 kts 148°
2026-04-28 17:48 51.33047 6.94892 36482 ft 468 kts 148°
2026-04-28 17:48 51.30314 6.97745 36643 ft 471 kts 148°
2026-04-28 17:49 51.27557 7.00584 36734 ft 474 kts 149°
2026-04-28 17:49 51.24770 7.03416 36967 ft 474 kts 149°
2026-04-28 17:49 51.21984 7.06221 37328 ft 471 kts 149°
2026-04-28 17:49 51.19210 7.08997 37674 ft 469 kts 148°
2026-04-28 17:50 51.16462 7.11737 38079 ft 464 kts 148°
2026-04-28 17:50 51.13728 7.14460 38350 ft 464 kts 148°
2026-04-28 17:50 51.10985 7.17188 38399 ft 467 kts 149°
2026-04-28 17:50 51.08228 7.19926 38532 ft 469 kts 149°
2026-04-28 17:51 51.05460 7.22672 38792 ft 467 kts 149°
2026-04-28 17:51 51.02704 7.25405 38974 ft 467 kts 149°
2026-04-28 17:51 50.99950 7.28130 39070 ft 468 kts 149°
2026-04-28 17:52 50.94389 7.33623 39153 ft 472 kts 149°
2026-04-28 17:52 50.86064 7.41821 39154 ft 468 kts 149°
2026-04-28 17:53 50.80540 7.47239 39151 ft 465 kts 149°
2026-04-28 17:53 50.75057 7.52605 39152 ft 463 kts 149°
2026-04-28 17:54 50.69598 7.58010 39153 ft 462 kts 148°
2026-04-28 17:54 50.64230 7.63591 39164 ft 463 kts 147°
2026-04-28 17:55 50.58859 7.69196 39153 ft 464 kts 148°
2026-04-28 17:55 50.53463 7.74779 39150 ft 465 kts 148°
2026-04-28 17:56 50.48034 7.80359 39148 ft 467 kts 148°
2026-04-28 17:56 50.42584 7.85944 39140 ft 469 kts 148°
2026-04-28 17:57 50.37110 7.91538 39142 ft 470 kts 148°
2026-04-28 17:57 50.31623 7.97132 39136 ft 472 kts 148°
2026-04-28 17:58 50.26149 8.02696 39137 ft 473 kts 148°
2026-04-28 17:58 50.20633 8.08291 39134 ft 473 kts 148°
2026-04-28 17:59 50.15097 8.13808 39134 ft 471 kts 153°
2026-04-28 17:59 50.09028 8.17375 39138 ft 465 kts 168°
2026-04-28 18:00 50.02738 8.19690 39138 ft 463 kts 169°
2026-04-28 18:00 49.96475 8.21993 39143 ft 463 kts 169°
2026-04-28 18:01 49.90155 8.23468 39108 ft 457 kts 180°
2026-04-28 18:01 49.83795 8.23711 39104 ft 457 kts 182°
2026-04-28 18:02 49.77432 8.23921 39108 ft 458 kts 181°
2026-04-28 18:02 49.71066 8.24208 39102 ft 459 kts 181°
2026-04-28 18:03 49.64650 8.24540 39086 ft 461 kts 181°
2026-04-28 18:03 49.58238 8.24882 39091 ft 462 kts 181°
2026-04-28 18:04 49.51814 8.25221 39090 ft 463 kts 181°
2026-04-28 18:04 49.45356 8.25560 39086 ft 465 kts 181°
2026-04-28 18:05 49.39978 8.25841 39075 ft 465 kts 181°
2026-04-28 18:05 49.32446 8.26234 39080 ft 466 kts 181°
2026-04-28 18:06 49.25959 8.26570 39077 ft 467 kts 181°
2026-04-28 18:06 49.19456 8.26908 39070 ft 467 kts 182°
2026-04-28 18:07 49.12967 8.27244 39062 ft 466 kts 182°
2026-04-28 18:07 49.06494 8.27577 39059 ft 465 kts 182°
2026-04-28 18:08 49.00042 8.27909 39044 ft 463 kts 182°
2026-04-28 18:08 48.93623 8.28239 39046 ft 460 kts 182°
2026-04-28 18:09 48.87245 8.28566 39045 ft 457 kts 182°
2026-04-28 18:09 48.80901 8.28889 39045 ft 454 kts 183°
2026-04-28 18:10 48.74602 8.29461 39037 ft 453 kts 180°
2026-04-28 18:10 48.68336 8.30384 39045 ft 451 kts 180°
2026-04-28 18:11 48.62107 8.31304 39048 ft 449 kts 180°
2026-04-28 18:11 48.55900 8.32168 39050 ft 447 kts 180°
2026-04-28 18:12 48.49695 8.33006 39059 ft 447 kts 180°
2026-04-28 18:12 48.43492 8.33837 39062 ft 448 kts 180°
2026-04-28 18:13 48.37256 8.34670 39052 ft 451 kts 180°
2026-04-28 18:13 48.30974 8.35509 39039 ft 455 kts 180°
2026-04-28 18:14 48.24658 8.36352 39038 ft 457 kts 180°
2026-04-28 18:14 48.18320 8.37200 39053 ft 458 kts 180°
2026-04-28 18:15 48.11954 8.38045 39041 ft 460 kts 180°
2026-04-28 18:15 48.05577 8.38890 39040 ft 461 kts 180°
2026-04-28 18:16 47.99179 8.39737 39044 ft 461 kts 180°
2026-04-28 18:16 47.92789 8.40580 39042 ft 461 kts 180°
2026-04-28 18:17 47.86414 8.41419 39035 ft 460 kts 180°
2026-04-28 18:17 47.80047 8.42255 39042 ft 458 kts 180°
2026-04-28 18:18 47.73705 8.43086 39042 ft 457 kts 180°
2026-04-28 18:18 47.68448 8.43773 39055 ft 455 kts 180°
2026-04-28 18:19 47.61129 8.44835 39058 ft 453 kts 179°
2026-04-28 18:19 47.54883 8.45774 39080 ft 451 kts 179°
2026-04-28 18:20 47.48653 8.46695 39052 ft 449 kts 179°
2026-04-28 18:20 47.42453 8.47603 39072 ft 447 kts 179°
2026-04-28 18:21 47.36260 8.48506 39068 ft 446 kts 179°
2026-04-28 18:21 47.30087 8.49405 39081 ft 446 kts 179°
2026-04-28 18:22 47.23904 8.50303 39057 ft 447 kts 179°
2026-04-28 18:22 47.17713 8.51202 39065 ft 448 kts 179°
2026-04-28 18:23 47.11480 8.52104 39062 ft 450 kts 179°
2026-04-28 18:23 47.05229 8.53007 39037 ft 453 kts 179°
2026-04-28 18:24 47.01019 8.53615 39049 ft 454 kts 179°
2026-04-28 18:24 46.93697 8.54671 39064 ft 456 kts 179°
2026-04-28 18:25 46.87355 8.55583 39061 ft 460 kts 179°
2026-04-28 18:25 46.84144 8.56043 38469 ft 466 kts 179°
2026-04-28 18:26 46.77784 8.56961 37102 ft 459 kts 179°
2026-04-28 18:26 46.74612 8.57416 36449 ft 456 kts 180°
2026-04-28 18:26 46.71456 8.57867 35712 ft 456 kts 180°
2026-04-28 18:26 46.68293 8.58317 34921 ft 457 kts 180°
2026-04-28 18:27 46.65122 8.58769 34083 ft 459 kts 181°
2026-04-28 18:27 46.61939 8.59222 33149 ft 460 kts 180°
2026-04-28 18:27 46.58758 8.59675 32512 ft 456 kts 180°
2026-04-28 18:27 46.55615 8.60126 31887 ft 451 kts 180°
2026-04-28 18:28 46.52513 8.60569 31276 ft 446 kts 180°
2026-04-28 18:28 46.49446 8.61006 30701 ft 441 kts 180°
2026-04-28 18:28 46.46409 8.61438 30124 ft 436 kts 180°
2026-04-28 18:28 46.43450 8.61857 29479 ft 431 kts 180°
2026-04-28 18:29 46.40500 8.62274 28921 ft 425 kts 180°
2026-04-28 18:29 46.37568 8.62688 28329 ft 418 kts 179°
2026-04-28 18:29 46.34669 8.63099 27764 ft 411 kts 179°
2026-04-28 18:29 46.31875 8.63493 27248 ft 406 kts 179°
2026-04-28 18:30 46.29070 8.63886 26671 ft 404 kts 179°
2026-04-28 18:30 46.27193 8.64146 26258 ft 399 kts 179°
2026-04-28 18:30 46.23573 8.64654 25608 ft 392 kts 179°
2026-04-28 18:30 46.20834 8.65040 25073 ft 389 kts 178°
2026-04-28 18:31 46.18176 8.65412 24579 ft 387 kts 179°
2026-04-28 18:31 46.15502 8.65787 24046 ft 385 kts 178°
2026-04-28 18:31 46.12802 8.66164 23477 ft 385 kts 178°
2026-04-28 18:31 46.10187 8.66742 22875 ft 388 kts 166°
2026-04-28 18:32 46.07758 8.68406 22506 ft 385 kts 154°
2026-04-28 18:32 46.05427 8.70277 21923 ft 383 kts 154°
2026-04-28 18:32 46.03107 8.72147 21410 ft 380 kts 154°
2026-04-28 18:32 46.00782 8.74006 20892 ft 378 kts 154°
2026-04-28 18:33 45.98475 8.75833 20378 ft 376 kts 154°
2026-04-28 18:33 45.96233 8.77597 19904 ft 374 kts 154°
2026-04-28 18:33 45.93940 8.79392 19394 ft 373 kts 155°
2026-04-28 18:33 45.91656 8.81176 18883 ft 372 kts 155°
2026-04-28 18:34 45.89388 8.82946 18339 ft 371 kts 155°
2026-04-28 18:34 45.87121 8.84711 17812 ft 370 kts 155°
2026-04-28 18:34 45.84883 8.86454 17578 ft 359 kts 154°
2026-04-28 18:34 45.82728 8.88133 17486 ft 345 kts 155°
2026-04-28 18:35 45.80658 8.89743 17366 ft 333 kts 155°
2026-04-28 18:35 45.78658 8.91296 17079 ft 327 kts 155°
2026-04-28 18:35 45.76653 8.92846 16682 ft 325 kts 155°
2026-04-28 18:35 45.74661 8.94385 16293 ft 323 kts 155°
2026-04-28 18:36 45.72692 8.95909 15839 ft 316 kts 155°
2026-04-28 18:36 45.70768 8.97395 15291 ft 319 kts 155°
2026-04-28 18:36 45.68826 8.98894 14949 ft 315 kts 155°
2026-04-28 18:36 45.66908 9.00375 14657 ft 311 kts 155°
2026-04-28 18:37 45.65016 9.01834 14314 ft 309 kts 155°
2026-04-28 18:37 45.63132 9.03284 13954 ft 307 kts 154°
2026-04-28 18:37 45.61278 9.04708 13580 ft 305 kts 154°
2026-04-28 18:37 45.59388 9.06158 13151 ft 304 kts 154°
2026-04-28 18:38 45.57559 9.07562 12767 ft 302 kts 154°
2026-04-28 18:38 45.55707 9.08981 12412 ft 300 kts 154°
2026-04-28 18:38 45.53881 9.10380 12051 ft 297 kts 154°
2026-04-28 18:38 45.52073 9.11764 11863 ft 289 kts 154°
2026-04-28 18:39 45.50270 9.12816 11727 ft 272 kts 173°
2026-04-28 18:39 45.48415 9.13068 11401 ft 267 kts 178°
2026-04-28 18:39 45.46570 9.13247 11095 ft 266 kts 178°
2026-04-28 18:39 45.44736 9.13429 10801 ft 264 kts 177°
2026-04-28 18:40 45.42912 9.13616 10498 ft 263 kts 177°
2026-04-28 18:40 45.41084 9.13811 10207 ft 261 kts 177°
2026-04-28 18:40 45.39278 9.14007 9935 ft 259 kts 177°
2026-04-28 18:40 45.37468 9.14207 9638 ft 257 kts 177°
2026-04-28 18:41 45.35714 9.14402 9305 ft 256 kts 176°
2026-04-28 18:41 45.33939 9.14600 8983 ft 255 kts 176°
2026-04-28 18:41 45.32171 9.14797 8663 ft 254 kts 176°
2026-04-28 18:41 45.30411 9.14994 8351 ft 253 kts 176°
2026-04-28 18:42 45.28658 9.15190 8036 ft 252 kts 176°
2026-04-28 18:42 45.26913 9.15385 7748 ft 251 kts 175°
2026-04-28 18:42 45.25227 9.15574 7644 ft 235 kts 175°
2026-04-28 18:42 45.23630 9.15752 7396 ft 227 kts 175°
2026-04-28 18:43 45.22047 9.15929 7082 ft 228 kts 175°
2026-04-28 18:43 45.20468 9.16102 6838 ft 226 kts 175°
2026-04-28 18:43 45.18898 9.16274 6586 ft 226 kts 174°
2026-04-28 18:43 45.17393 9.16781 6263 ft 224 kts 146°
2026-04-28 18:44 45.16454 9.18475 5914 ft 221 kts 107°
2026-04-28 18:44 45.16920 9.22650 5053 ft 224 kts 54°
2026-04-28 18:44 45.18030 9.24198 4681 ft 223 kts 41°
2026-04-28 18:45 45.19214 9.25609 4284 ft 222 kts 41°
2026-04-28 18:45 45.20397 9.27028 3911 ft 224 kts 41°
2026-04-28 18:45 45.21581 9.28453 3648 ft 222 kts 41°
2026-04-28 18:45 45.22818 9.29749 3377 ft 223 kts 24°
2026-04-28 18:46 45.24341 9.29956 3105 ft 223 kts 351°
2026-04-28 18:46 45.25892 9.29655 3069 ft 224 kts 357°
2026-04-28 18:46 45.27412 9.29531 3000 ft 213 kts 358°
2026-04-28 18:46 45.28831 9.29399 2993 ft 196 kts 356°
2026-04-28 18:47 45.30139 9.29260 2869 ft 181 kts 356°
2026-04-28 18:47 45.31352 9.29129 2662 ft 169 kts 356°
2026-04-28 18:47 45.32514 9.29003 2460 ft 165 kts 356°
2026-04-28 18:47 45.33594 9.28886 2284 ft 148 kts 356°
2026-04-28 18:48 45.34591 9.28778 2048 ft 141 kts 356°
2026-04-28 18:48 45.35575 9.28673 1865 ft 144 kts 356°
2026-04-28 18:48 45.36580 9.28564 1672 ft 145 kts 356°
2026-04-28 18:48 45.37582 9.28455 1475 ft 144 kts 356°
2026-04-28 18:49 45.38577 9.28348 1289 ft 143 kts 356°
2026-04-28 18:49 45.38914 9.28311 1227 ft 143 kts 356°
2026-04-28 18:49 45.40567 9.28129 939 ft 142 kts 355°
2026-04-28 18:49 45.41548 9.28024 759 ft 142 kts 355°
2026-04-28 18:50 45.42522 9.27919 577 ft 141 kts 355°
2026-04-28 18:50 45.43499 9.27817 397 ft 140 kts 355°
2026-04-28 18:50 45.44390 9.27721 354 ft 115 kts 355°
2026-04-28 18:50 45.45009 9.27653 361 ft 53 kts 355°
2026-04-28 18:51 45.45231 9.27633 358 ft 25 kts
2026-04-28 18:51 45.45354 9.27691 362 ft 14 kts 27°
2026-04-28 18:51 45.45435 9.27757 361 ft 13 kts 44°
2026-04-28 18:51 45.45509 9.27819 367 ft 13 kts
2026-04-28 18:52 45.45596 9.27817 362 ft 12 kts
2026-04-28 18:52 45.45680 9.27818 362 ft 12 kts
2026-04-28 18:52 45.45749 9.27819 362 ft 8 kts
2026-04-28 18:52 45.45803 9.27820 368 ft 7 kts
2026-04-28 18:53 45.45854 9.27820 362 ft 7 kts
2026-04-28 18:53 45.45896 9.27847 367 ft 7 kts 56°
2026-04-28 18:53 45.45915 9.27908 365 ft 7 kts 28°
2026-04-28 18:53 45.45946 9.27906 365 ft 3 kts 354°
2026-04-28 18:54 45.45965 9.27905 362 ft 2 kts 359°
2026-04-28 18:54 45.45971 9.27905 362 ft 0 kts